TimeEEST,TemperatureF,Dew PointF,Humidity,Sea Level PressureIn,VisibilityMPH,Wind Direction,Wind SpeedMPH,Gust SpeedMPH,PrecipitationIn,Events,Conditions,WindDirDegrees,DateUTC
12:20 AM,69.8,53.6,56,30.04,-9999.0,Variable,5.8,-,N/A,,Clear,0,2011-10-06 21:20:00
12:50 AM,69.8,51.8,53,30.04,-9999.0,ESE,6.9,-,N/A,,Clear,120,2011-10-06 21:50:00
1:20 AM,64.4,51.8,64,30.04,-9999.0,ENE,2.3,-,N/A,,Clear,70,2011-10-06 22:20:00
1:50 AM,62.6,53.6,72,30.01,-9999.0,Variable,1.2,-,N/A,,Clear,0,2011-10-06 22:50:00
2:20 AM,60.8,53.6,77,30.01,-9999.0,North,3.5,-,N/A,,Clear,350,2011-10-06 23:20:00
2:50 AM,60.8,53.6,77,30.01,-9999.0,Calm,Calm,-,N/A,,Clear,0,2011-10-06 23:50:00
3:00 AM,62,55,71,30.02,6,Calm,Calm,,,,,,2011-10-07 00:00:00
3:20 AM,59.0,51.8,77,30.01,-9999.0,Calm,Calm,-,N/A,,Clear,0,2011-10-07 00:20:00
3:50 AM,59.0,53.6,82,30.01,-9999.0,Calm,Calm,-,N/A,,Clear,0,2011-10-07 00:50:00
4:20 AM,59.0,55.4,88,30.01,-9999.0,Calm,Calm,-,N/A,,Clear,0,2011-10-07 01:20:00
4:50 AM,59.0,55.4,88,30.01,-9999.0,NNW,4.6,-,N/A,,Clear,340,2011-10-07 01:50:00
5:20 AM,59.0,55.4,88,29.98,-9999.0,NNW,4.6,-,N/A,,Clear,340,2011-10-07 02:20:00
5:50 AM,60.8,57.2,88,29.98,6.2,NNW,2.3,-,N/A,,Partly Cloudy,340,2011-10-07 02:50:00
6:20 AM,60.8,59.0,94,29.98,6.2,Calm,Calm,-,N/A,,Partly Cloudy,0,2011-10-07 03:20:00
6:50 AM,62.6,59.0,88,29.98,6.2,Calm,Calm,-,N/A,,Mostly Cloudy,0,2011-10-07 03:50:00
7:20 AM,64.4,62.6,94,29.98,-9999.0,SSW,6.9,-,N/A,,Clear,200,2011-10-07 04:20:00
7:50 AM,66.2,62.6,88,29.98,-9999.0,SSW,9.2,-,N/A,,Clear,200,2011-10-07 04:50:00
8:20 AM,66.2,62.6,88,29.98,-9999.0,SSW,10.4,-,N/A,,Clear,200,2011-10-07 05:20:00
8:50 AM,68.0,60.8,78,29.98,-9999.0,South,9.2,-,N/A,,Clear,190,2011-10-07 05:50:00
9:00 AM,67,61,77,29.99,6,South,9.2,,,,,190,2011-10-07 06:00:00
9:20 AM,68.0,60.8,78,29.98,-9999.0,South,11.5,-,N/A,,Clear,190,2011-10-07 06:20:00
9:50 AM,68.0,59.0,73,29.98,-9999.0,South,11.5,-,N/A,,Clear,190,2011-10-07 06:50:00
10:20 AM,69.8,60.8,73,29.98,6.2,South,9.2,-,N/A,,Partly Cloudy,190,2011-10-07 07:20:00
10:50 AM,69.8,62.6,78,29.98,6.2,SW,10.4,-,N/A,,Partly Cloudy,220,2011-10-07 07:50:00
11:20 AM,71.6,57.2,60,29.98,6.2,SW,11.5,-,N/A,,Partly Cloudy,220,2011-10-07 08:20:00
11:50 AM,69.8,57.2,64,29.98,-9999.0,SSW,12.7,-,N/A,,Clear,210,2011-10-07 08:50:00
12:20 PM,69.8,57.2,64,29.98,-9999.0,SW,11.5,-,N/A,,Clear,220,2011-10-07 09:20:00
12:50 PM,71.6,59.0,64,29.98,-9999.0,SSW,9.2,-,N/A,,Clear,210,2011-10-07 09:50:00
1:20 PM,69.8,57.2,64,29.95,-9999.0,SSW,9.2,-,N/A,,Clear,210,2011-10-07 10:20:00
1:50 PM,69.8,59.0,68,29.95,-9999.0,SW,10.4,-,N/A,,Clear,220,2011-10-07 10:50:00
2:20 PM,69.8,57.2,64,29.92,-9999.0,SW,9.2,-,N/A,,Clear,220,2011-10-07 11:20:00
2:50 PM,71.6,57.2,60,29.92,-9999.0,SW,9.2,-,N/A,,Clear,230,2011-10-07 11:50:00
3:00 PM,71,56,49,29.93,6,SW,9.2,,,,,230,2011-10-07 12:00:00
3:20 PM,71.6,53.6,53,29.92,-9999.0,SW,6.9,-,N/A,,Clear,220,2011-10-07 12:20:00
3:50 PM,71.6,53.6,53,29.92,-9999.0,SW,6.9,-,N/A,,Clear,220,2011-10-07 12:50:00
4:20 PM,71.6,51.8,50,29.89,-9999.0,SW,5.8,-,N/A,,Clear,220,2011-10-07 13:20:00
4:50 PM,71.6,50.0,46,29.89,-9999.0,WSW,4.6,-,N/A,,Clear,240,2011-10-07 13:50:00
5:20 PM,71.6,51.8,50,29.89,-9999.0,SW,3.5,-,N/A,,Clear,220,2011-10-07 14:20:00
5:50 PM,71.6,51.8,50,29.89,-9999.0,Variable,2.3,-,N/A,,Clear,0,2011-10-07 14:50:00
6:20 PM,69.8,53.6,56,29.89,-9999.0,SSE,3.5,-,N/A,,Clear,160,2011-10-07 15:20:00
6:50 PM,68.0,55.4,64,29.89,-9999.0,SSE,4.6,-,N/A,,Clear,150,2011-10-07 15:50:00
7:20 PM,66.2,57.2,73,29.89,-9999.0,SSE,4.6,-,N/A,,Clear,160,2011-10-07 16:20:00
7:50 PM,68.0,60.8,78,29.89,-9999.0,SSE,5.8,-,N/A,,Clear,160,2011-10-07 16:50:00
8:20 PM,68.0,60.8,78,29.89,-9999.0,SE,5.8,-,N/A,,Clear,140,2011-10-07 17:20:00
8:50 PM,66.2,59.0,78,29.89,-9999.0,SE,4.6,-,N/A,,Clear,140,2011-10-07 17:50:00
9:00 PM,67,60,70,29.89,6,SE,4.6,,,,,140,2011-10-07 18:00:00
9:20 PM,66.2,59.0,78,29.89,-9999.0,SE,4.6,-,N/A,,Clear,140,2011-10-07 18:20:00
9:50 PM,64.4,57.2,77,29.89,-9999.0,SE,4.6,-,N/A,,Clear,130,2011-10-07 18:50:00
10:20 PM,64.4,60.8,88,29.89,-9999.0,Variable,1.2,-,N/A,,Clear,0,2011-10-07 19:20:00
10:50 PM,69.8,60.8,73,29.86,-9999.0,SE,6.9,-,N/A,,Clear,130,2011-10-07 19:50:00
11:20 PM,68.0,59.0,73,29.86,-9999.0,South,5.8,-,N/A,,Clear,170,2011-10-07 20:20:00
11:50 PM,68.0,59.0,73,29.86,-9999.0,Variable,2.3,-,N/A,,Clear,0,2011-10-07 20:50:00